This is the latest recevied weather packets stored in our database for station/object KC7UNY-13. If no packets are shown the sender has not sent any weather packets the latest 10 day(s).
| Time | Temp. | Humidity | Pressure | Rain* | Wind** | Luminosity | Snow |
|---|---|---|---|---|---|---|---|
| 1777938678 | 25.56° C | 36% | 1011.1 hPa | 0 mm | - | 126 W/m² | - |
| 1777938375 | 25.56° C | 37% | 1011.1 hPa | 0 mm | - | 151 W/m² | - |
| 1777938072 | 25.56° C | 37% | 1011.3 hPa | 0 mm | - | 162 W/m² | - |
| 1777937767 | 26.11° C | 36% | 1011.3 hPa | 0 mm | - | 158 W/m² | - |
| 1777937464 | 25.56° C | 37% | 1011.2 hPa | 0 mm | - | 169 W/m² | - |
| 1777937161 | 25.56° C | 37% | 1010.9 hPa | 0 mm | - | 158 W/m² | - |
| 1777936859 | 25.56° C | 37% | 1010.7 hPa | 0 mm | - | 156 W/m² | - |
| 1777936555 | 25.56° C | 37% | 1010.8 hPa | 0 mm | - | 173 W/m² | - |
| 1777936251 | 25.56° C | 38% | 1010.8 hPa | 0 mm | - | 184 W/m² | - |
| 1777935947 | 25.56° C | 38% | 1011.1 hPa | 0 mm | - | 200 W/m² | - |
| 1777935647 | 25.56° C | 37% | 1010.9 hPa | 0 mm | - | 210 W/m² | - |
| 1777935343 | 26.11° C | 37% | 1011.2 hPa | 0 mm | - | 230 W/m² | - |
| 1777935040 | 26.11° C | 38% | 1011.3 hPa | 0 mm | - | 260 W/m² | - |
| 1777934737 | 26.11° C | 37% | 1011.1 hPa | 0 mm | - | 265 W/m² | - |
| 1777934435 | 26.11° C | 38% | 1011.4 hPa | 0 mm | - | 275 W/m² | - |
| 1777934131 | 26.11° C | 37% | 1011.4 hPa | 0 mm | - | 266 W/m² | - |
| 1777933827 | 26.11° C | 37% | 1011.2 hPa | 0 mm | - | 270 W/m² | - |
| 1777933523 | 25.56° C | 38% | 1011.4 hPa | 0 mm | - | 270 W/m² | - |
| 1777933221 | 25.56° C | 39% | 1011.2 hPa | 0 mm | - | 239 W/m² | - |
| 1777932918 | 25.56° C | 39% | 1011.1 hPa | 0 mm | - | 190 W/m² | - |
| 1777932615 | 25.56° C | 39% | 1011.1 hPa | 0 mm | - | 201 W/m² | - |
| 1777932311 | 25.56° C | 39% | 1011.3 hPa | 0 mm | - | 209 W/m² | - |
| 1777932008 | 25.56° C | 40% | 1011.6 hPa | 0 mm | - | 215 W/m² | - |
| 1777931705 | 25.56° C | 39% | 1011.8 hPa | 0 mm | - | 232 W/m² | - |
| 1777931403 | 25.56° C | 39% | 1011.9 hPa | 0 mm | - | 227 W/m² | - |
* Rain latest hour (hover to see other rain measurements)
** Current wind speed in m/s (hover to see current wind gust speed)